www.pogodaiklimat.ru

Погода и климат >> Архив погоды >> Саудовская Аравия >> Эд-Даммам


ПОГОДА в Эд-Даммаме

  • Прогноз погоды в Эд-Даммаме
  • Монитор погоды в Эд-Даммаме

АРХИВ ПОГОДЫ в Эд-Даммаме

Время (UTC), дата Ветер
(напр.,м/с)
 
Видим.   Явления Облачность Т
(С)
Тd
(С)
f
(%)
Тe
(С)
Тes
(С)
Комфортность P
(гПа)
Po
(гПа)
Тmin
(С)
Tmax
(С)
R
(мм)
R24
(мм)
S
(см)
15 11.08 С 5 10 км ясно +41.0 +5.0 11 +38 +38 очень
жарко
995.0 993.6
18 11.08 штиль 0 10 км ясно +35.2 +8.0 19 +33 +33 жарко 996.3 995.0 +45.6
21 11.08 З 5 10 км ясно +33.6 0.0 12 +30 +30 жарко 996.1 994.8
00 12.08 СЗ 7 10 км ясно +32.6 -3.0 10 +29 +29 жарко 995.0 993.7
03 12.08 З 6 10 км 3/0
[Ac trans]
+32.0 -1.0 12 +29 +29 жарко 996.7 995.3
06 12.08 СЗ 9 10 км ясно +39.1 -1.0 8 +35 +37 очень
жарко
997.2 995.8 +31.0
09 12.08 СЗ 7 8000 м пыльный позёмок ясно +44.6 +3.0 8 +41 +47 опасность
перегрева
995.8 994.5
12 12.08 СЗ 7 10 км ясно +46.2 +3.0 7 +43 +46 опасность
перегрева
993.9 992.6
15 12.08 СВ 4 10 км 5/0
[Ac trans]
+41.1 +8.0 14 +39 +39 очень
жарко
994.3 993.0
18 12.08 Ю 3 10 км 3/0
[Ci fib]
+34.9 +16.0 32 +37 +37 очень
душно
995.9 994.6 +46.6
21 12.08 Ю 3 10 км ясно +32.1 +18.0 43 +36 +36 очень
душно
995.4 994.1
00 13.08 Ю 2 10 км ясно +29.1 +11.0 33 +30 +30 жарко 995.5 994.1
03 13.08 ЮВ 3 10 км 4/0
[Ac trans]
+29.4 +11.0 32 +30 +30 жарко 996.4 995.0
06 13.08 Ю 4 10 км 4/0
[Ac trans]
+36.7 +3.0 12 +33 +41 жарко 997.5 996.1 +28.6
09 13.08 штиль 0 10 км 3/0
[Ac trans]
+45.0 +3.0 8 +42 +65 опасность
перегрева
997.0 995.6
12 13.08 В 8 10 км 1/0
[Ci fib]
+41.5 +17.0 24 +44 +46 опасность
перегрева
996.3 994.9
15 13.08 В 6 10 км 4/0
[Ac trans]
+37.6 +23.0 43 +47 +47 опасность
перегрева
996.6 995.2
18 13.08 В 3 10 км 8/0
[Ac trans]
+34.7 +26.0 61 +51 +51 опасность
перегрева
998.0 996.6 +45.8
21 13.08 нст 1 10 км 4/0
[Ac trans]
+32.8 +25.0 64 +47 +47 опасность
перегрева
997.8 996.5
00 14.08 СВ 2 8000 м мгла 8/0
[Ac trans]
+32.7 +28.0 76 +53 +53 опасность
перегрева
997.7 996.3
03 14.08 штиль 0 3000 м дымка 6/0
[Ac trans]
+32.1 +28.0 79 +53 +53 опасность
перегрева
999.6 998.2
06 14.08 нст 2 8000 м пыль 3/0
[Ci fib]
+38.5 +19.0 32 +43 +56 опасность
перегрева
1000.5 999.1 +31.7
09 14.08 нст 2 10 км ясно +44.0 +14.0 18 +45 +67 опасность
перегрева
999.6 998.2
12 14.08 СВ 5 10 км 3/0
[Ac trans]
+41.7 +18.0 25 +45 +49 опасность
перегрева
998.3 996.9
15 14.08 СВ 5 7000 м мгла 3/0
[Ci sp]
+35.8 +26.0 57 +51 +51 опасность
перегрева
998.5 997.1
18 14.08 СВ 3 8000 м мгла 4/0
[Ac trans]
+33.7 +27.0 68 +52 +52 опасность
перегрева
1000.2 998.8 +44.9
21 14.08 В 2 8000 м мгла ясно +32.6 +28.0 77 +53 +53 опасность
перегрева
1000.0 998.6
00 15.08 В 3 8000 м мгла 4/0
[Ac trans]
+31.1 +27.0 79 +49 +49 опасность
перегрева
999.3 997.9
03 15.08 штиль 0 5000 м мгла 4/0
[Ac trans]
+30.9 +26.0 75 +46 +47 опасность
перегрева
1000.3 998.9
06 15.08 СЗ 3 10 км ясно +37.9 +17.0 29 +40 +52 опасность
солнечного
удара
1001.6 1000.2 +30.4
09 15.08 ЮВ 2 10 км ясно +43.9 +12.0 15 +43 +66 опасность
перегрева
1000.5 999.1
12 15.08 В 5 10 км ясно +44.0 +15.0 19 +45 +50 опасность
перегрева
998.4 997.0
15 15.08 В 5 10 км ясно +37.5 +20.0 36 +43 +43 опасность
перегрева
998.7 997.3
18 15.08 СВ 2 10 км ясно +35.3 +21.0 43 +42 +42 опасность
перегрева
1000.8 999.4 +46.1
21 15.08 С 3 8000 м мгла 3/0
[Ac trans]
+32.8 +23.0 56 +43 +43 опасность
перегрева
1001.2 999.8
00 16.08 СЗ 4 8000 м мгла 5/0
[Ac trans]
+31.4 +22.0 57 +40 +40 очень
душно
1000.4 999.0
03 16.08 СЗ 5 7000 м мгла 4/0
[Ac trans]
+31.6 +18.0 44 +36 +36 очень
душно
1000.6 999.2
06 16.08 С 11 10 км 1/0
[Ac trans]
+41.0 +7.0 13 +39 +39 очень
жарко
1001.1 999.7 +31.0
09 16.08 С 11 7000 м пыльный позёмок ясно +43.7 +7.0 11 +41 +41 опасность
перегрева
1000.6 999.2
12 16.08 С 13 7000 м пыльный позёмок ясно +43.2 +7.0 11 +41 +41 опасность
перегрева
999.0 997.6
15 16.08 С 5 10 км ясно +39.6 +9.0 16 +38 +38 очень
жарко
998.9 997.5
18 16.08 С 4 10 км ясно +34.5 +13.0 27 +35 +35 очень
жарко
999.5 998.2 +44.6
21 16.08 З 4 10 км 4/0
[Ac trans]
+32.1 +12.0 29 +32 +32 жарко 999.7 998.3
00 17.08 СЗ 5 10 км 3/0
[Ac trans]
+31.5 +3.0 16 +29 +29 жарко 999.0 997.6
03 17.08 СЗ 5 10 км ясно +30.7 +1.0 15 +28 +28 жарко 999.8 998.4
06 17.08 СЗ 8 10 км ясно +37.9 +2.0 11 +35 +37 очень
жарко
1000.2 998.8 +3.0
09 17.08 С 9 10 км ясно +42.4 +6.0 11 +40 +42 очень
жарко
999.6 998.2
12 17.08 С 9 10 км ясно +42.1 +5.0 11 +39 +40 очень
жарко
998.3 996.9
15 17.08 С 6 10 км ясно +38.6 +9.0 17 +37 +37 очень
жарко
998.2 996.8
18 17.08 штиль 0 10 км ясно +32.8 +12.0 28 +33 +33 жарко 999.3 997.9 +43.0
21 17.08 штиль 0 10 км ясно +29.2 +10.0 30 +29 +29 жарко 999.4 998.0
00 18.08 З 4 10 км ясно +29.0 +6.0 23 +28 +28 жарко 999.5 998.1
03 18.08 З 3 10 км ясно +28.2 +4.0 21 +27 +27 жарко 1000.2 998.8
06 18.08 СЗ 3 10 км ясно +39.2 +3.0 11 +36 +48 очень
жарко
1001.2 999.8 +28.2
09 18.08 С 8 10 км ясно +43.4 +3.0 9 +40 +45 очень
жарко
1001.0 999.6
12 18.08 С 7 10 км ясно +42.7 +4.0 10 +40 +43 очень
жарко
1000.2 998.8

 

Местоположение метеостанции Эд-Даммам (Саудовская Аравия): широта 26.45 долгота 49.82 высота над уровнем моря 12 м.

В архиве по умолчанию представлена погода в Эд-Даммаме за последнюю неделю. Архивные данные за месяц целиком и за предыдущие месяцы, начиная с января 2011 года, Вы можете получить, выбрав интересующий диапазон дат из раскрывающегося списка и нажав кнопку "Ввод!".


*Определитесь, кто Вы:
робот инопланетянин человек

Внимание! Время в таблицах - всемирное. Для получения местного времени необходимо прибавить поправку, которая равна 3 ч.

Смотрите также архив погоды в соседних городах и на ближайших метеорологических станциях:

Погода в Дахране (Саудовская Аравия) (40 км)
Погода в Бахрейне (Бахрейн) (85 км)
Погода в Эль-Хуфуфе (Саудовская Аравия) (132 км)
Погода в Духане (Катар) (149 км)
Погода в Абу Самба (Катар) (214 км)
Погода в Дохе (Катар) (220 км)
Погода в Аэропорту Хамад (Катар) (222 км)
Погода в Доха порту (Катар) (235 км)
Погода в Нувасибе (Кувейт) (251 км)
Погода в Бендер-Дейере (Иран) (259 км)

Пояснения к столбцам:

Ветер - указаны скорость ветра в м/с - средняя за 10 мин, порывы в срок и между сроками (в фигурных скобках) и направление, откуда дует ветер: С - северный, СВ - северо-восточный, В - восточный, ЮВ - юго-восточный, Ю - южный, ЮЗ - юго-западный, З - западный, СЗ - северо-западный.
Видимость - горизонтальная дальность видимости в метрах или километрах. При видимости от 1 до 10 км при отсутствии осадков обычно наблюдается дымка, при ухудшении видимости до 1 км и менее - туман. В сухую погоду видимость может ухудшаться дымом, пылью или мглою.
Явления - указаны атмосферные явления, наблюдавшиеся в срок или в последний час перед сроком; фигурными скобками обозначены явления, наблюдавшиеся между сроками (за 1-3 часа до срока); квадратными скобками обозначены град или гололедные отложения с указанием их диаметра в мм.
Облачность - указаны через наклонную черту общая и нижняя облачность в баллах и высота нижней границы облаков в метрах; квадратными скобками обозначены формы облаков: Ci - перистые, Cs - перисто-слоистые, Cc - перисто-кучевые, Ac - высококучевые, As - высокослоистые, Sc - слоисто-кучевые, Ns - слоисто-дождевые, Cu - кучевые, Cb - кучево-дождевые. Подробнее классификацию облаков см. в Атласе облаков (PDF).
T - Температура воздуха - температура, измеренная на высоте 2 м над землей.
Td - Температура точки росы - температура, при понижении до которой содержащийся в воздухе водяной пар достигнет насыщения.
f - Относительная влажность воздуха - влажноcть воздуха, измеренная на высоте 2 м над землей.
Te - Эффективная температура - температура, которую ощущает одетый по сезону человек в тени. Характеристика душности погоды. При расчете учитывается влияние влажности воздуха и скорости ветра на теплоощущения человека.
Tes - Эффективная температура на солнце - температура, которую ощущает человек, с поправкой на солнечный нагрев. Характеристика знойности погоды. Зависит от высоты солнца над горизонтом, облачности и скорости ветра. Ночью, в пасмурную погоду, а также при ветре 12 м/с и более поправка равна нулю.
P - Атмосферное давление - приведенное к уровню моря атмосферное давление.
Po - Атмосферное давление - измеренное на уровне метеостанции атмосферное давление.
Tmin - Минимальная температура - минимум температуры воздуха на высоте 2 м над землей.
Tmax - Максимальная температура - максимум температуры воздуха на высоте 2 м над землей.
R - Количество осадков - Количество выпавших осадков за период времени, мм. При наведении курсора мыши на число - период времени, за который выпало указанное количество осадков.
R24 - Количество осадков - Количество выпавших осадков за 24 часа, мм.
S - Снежный покров - Высота снежного покрова, см. При наведении курсора мыши на число - состояние снежного покрова и степень покрытия местности в баллах.